Weather History for China Lake, CA

Change the Weather History Date:

Thursday, July 11, 2013

  Actual Average Record
Temperature  
Mean Temperature 84 °F -  
Max Temperature 90 °F 100 °F 113 °F (2012)
Min Temperature 78 °F 70 °F 61 °F (2000)
Cooling Degree Days 19    
Growing Degree Days 34 (Base 50)    
Moisture  
Dew Point 49 °F    
Average Humidity 29    
Maximum Humidity 42    
Minimum Humidity 23    
Precipitation  
Precipitation 0.00 in - - ()
Sea Level Pressure  
Sea Level Pressure 29.86 in    
Wind  
Wind Speed 8 mph (SSW)    
Max Wind Speed 15 mph    
Max Gust Speed -    
Visibility 10 miles    
Events Rain    
Averages and records for this station are not official NWS values.
T = Trace of Precipitation, MM = Missing Value Source: NWS Daily Summary

Daily Weather History Graph

Daily Weather History Graph

Search for Another Location

Airport:

Trip Planner

Search our weather history database for the weather conditions in past years. The results will help you decide how hot, cold, wet, or windy it might be!

Date:

Astronomy

Jul. 11, 2013 Rise Set
Actual Time 5:44 AM PDT 8:08 PM PDT
Civil Twilight 5:14 AM PDT 8:37 PM PDT
Nautical Twilight 4:38 AM PDT 9:14 PM PDT
Astronomical Twilight 3:58 AM PDT 9:53 PM PDT
Moon 8:58 AM PDT (7/11) 10:00 PM PDT (7/11)
Length of Visible Light 15h 23m
Length of Day
14h 24m
Waxing Crescent, 11% of the Moon is Illuminated
Jul 11
Waxing Crescent
Jul 15
First Quarter
Jul 22
Full
Jul 29
Last Quarter
Aug 6
New

Hourly Weather History & Observations

Time (PDT) Temp. Dew Point Humidity Pressure Visibility Wind Dir Wind Speed Gust Speed Precip Events Conditions
12:56 AM - - N/A% 29.90 in 10.0 mi NW 12.7 mph - N/A   Clear
1:56 AM - - N/A% 29.90 in 10.0 mi NW 5.8 mph - 0.00 in   Mostly Cloudy
2:56 AM - - N/A% 29.88 in 10.0 mi NNW 3.5 mph - N/A   Partly Cloudy
3:56 AM - - N/A% 29.87 in 10.0 mi NW 9.2 mph - 0.00 in   Partly Cloudy
4:56 AM 84.2 °F 48.2 °F 29% 29.80 in 10.0 mi WNW 5.8 mph - N/A   Mostly Cloudy
5:56 AM 84.2 °F 50.0 °F 30% 29.82 in 10.0 mi SW 5.8 mph - N/A   Mostly Cloudy
6:56 AM 84.2 °F 50.0 °F 30% 29.83 in 10.0 mi SSW 10.4 mph - N/A   Overcast
7:56 AM 86.0 °F 48.0 °F 27% 29.84 in 10.0 mi South 8.1 mph - N/A   Overcast
8:56 AM 86.0 °F 50.0 °F 29% 29.86 in 10.0 mi Calm Calm - N/A   Overcast
9:56 AM 87.1 °F 50.0 °F 28% 29.87 in 10.0 mi SSW 4.6 mph - 0.00 in Rain Light Rain
10:56 AM 81.0 °F 52.3 °F 37% 29.96 in 10.0 mi Calm Calm - 0.00 in   Overcast
11:56 AM 82.0 °F 52.5 °F 36% 29.99 in 10.0 mi South 11.5 mph - 0.00 in Rain Light Rain
12:56 PM 78.1 °F 53.2 °F 42% 29.98 in 10.0 mi WSW 13.8 mph - 0.00 in Rain Light Rain
1:56 PM 84.0 °F 47.5 °F 28% 29.96 in 10.0 mi Variable 3.5 mph - 0.00 in   Overcast
2:56 PM 88.0 °F 47.8 °F 25% 29.93 in 10.0 mi WSW 4.6 mph - N/A   Overcast
3:56 PM 88.0 °F 47.8 °F 25% 29.90 in 10.0 mi ESE 4.6 mph - N/A   Overcast
4:56 PM 88.0 °F 46.8 °F 24% 29.81 in 10.0 mi East 6.9 mph - N/A   Overcast
5:56 PM 88.0 °F 46.8 °F 24% 29.79 in 10.0 mi South 13.8 mph - N/A   Overcast
6:56 PM 90.0 °F 46.9 °F 23% 29.78 in 10.0 mi South 15.0 mph - N/A   Mostly Cloudy
7:56 PM 88.0 °F 46.9 °F 24% 29.78 in 10.0 mi South 13.8 mph - N/A   Mostly Cloudy
8:56 PM 87.1 °F 46.9 °F 25% 29.78 in 10.0 mi South 13.8 mph - N/A   Mostly Cloudy
9:56 PM 84.9 °F 52.0 °F 32% 29.80 in 10.0 mi South 9.2 mph - N/A   Mostly Cloudy
10:56 PM 82.9 °F 50.0 °F 32% 29.81 in 10.0 mi South 6.9 mph - N/A   Mostly Cloudy
11:56 PM - - N/A% 29.88 in 10.0 mi SSW 8.1 mph - N/A   Clear